SPACEBEE-107 (48894 NORAD) Tracking and Keplerian Element Data

This shows tracking and keplerian element data for the satellite.

Feedback or suggestion? Click here.




ElementValue
Catalog48894
NameSPACEBEE-107
Epoch Orbit1670
Epoch Day287.33086266
Epoch Year2021
RAAN54.5373
Inclination97.5286
Eccentricity0.0008499
Argument of Perigee228.4855
Mean Anonmoly131.5648
Mean Motion15.12485297
Decay Rate3.089E-05
L11 48894U 21059R 21287.33086266 .00003089 00000-0 18115-3 0 9993
L22 48894 97.5286 54.5373 0008499 228.4855 131.5648 15.12485297 16709

Live tracking and technical data element details for SPACEBEE-107 (NORAD 48894). SPACEBEE-107 can be tracked NOW for your location showing map with azimuth and elevation plus other details from your city location.

Track the satellite on the map from your city or location and see movement details for azimuth, elevation, latitude, longitude, range, height, and movement on the map or in text.







IsCatalogInMostPopularTable: catalog: 48894, numindb: 22
Update: records affected: 1



GetName: 48894 SPACEBEE-107

Hit Count: updated at: Tue, 19 Oct 2021 08:06:01 GMT